Weather History for Niagara Falls, NY

Change the Weather History Date:

Saturday, December 29, 2012

  Actual Average Record
Temperature  
Mean Temperature 24 °F -  
Max Temperature 28 °F 31 °F 57 °F (1990)
Min Temperature 21 °F 20 °F 0 °F (1993)
Degree Days  
Heating Degree Days 40    
Moisture  
Dew Point 22 °F    
Average Humidity 86    
Maximum Humidity 93    
Minimum Humidity 80    
Precipitation  
Precipitation 0.15 in - - ()
Snow  
Snow 0.00 in - - ()
Snow Depth 9.00 in    
Sea Level Pressure  
Sea Level Pressure 29.80 in    
Wind  
Wind Speed 9 mph (NNE)    
Max Wind Speed 16 mph    
Max Gust Speed 34 mph    
Visibility 3 miles    
Events Fog , Snow    
Averages and records for this station are not official NWS values.
T = Trace of Precipitation, MM = Missing Value Source: NWS Daily Summary

Daily Weather History Graph

Daily Weather History Graph

Search for Another Location

Airport:

Trip Planner

Search our weather history database for the weather conditions in past years. The results will help you decide how hot, cold, wet, or windy it might be!

Date:

Astronomy

Dec. 29, 2012 Rise Set
Actual Time 7:47 AM EST 4:49 PM EST
Civil Twilight 7:14 AM EST 5:21 PM EST
Nautical Twilight 6:38 AM EST 5:57 PM EST
Astronomical Twilight 6:04 AM EST 6:32 PM EST
Moon 6:23 PM EST (12/29) 8:17 AM EST (12/29)
Length of Visible Light 10h 06m
Length of Day
9h 02m
Full, 98% of the Moon is Illuminated
Dec 29
Full
Jan 4
Last Quarter
Jan 11
New
Jan 18
First Quarter
Jan 26
Full

Hourly Weather History & Observations

Time (EST) Temp. Windchill Dew Point Humidity Pressure Visibility Wind Dir Wind Speed Gust Speed Precip Events Conditions
12:53 AM 21.0 °F 14.6 °F 19.0 °F 92% 30.05 in 6.0 mi East 4.6 mph - N/A   Overcast
1:53 AM 24.1 °F 16.0 °F 19.9 °F 84% 30.01 in 8.0 mi ESE 6.9 mph - N/A   Overcast
2:53 AM 24.1 °F 15.2 °F 19.9 °F 84% 29.97 in 9.0 mi ENE 8.1 mph - N/A   Overcast
3:17 AM 24.8 °F 17.9 °F 21.2 °F 86% 29.90 in 10.0 mi East 5.8 mph - N/A   Overcast
3:40 AM 24.8 °F 17.9 °F 19.4 °F 80% 29.93 in 10.0 mi SE 5.8 mph - N/A   Overcast
3:53 AM 24.8 °F 17.9 °F 19.4 °F 80% 29.92 in 10.0 mi ESE 5.8 mph - N/A   Overcast
4:35 AM 24.8 °F - 21.2 °F 86% 29.91 in 7.0 mi Calm Calm - 0.00 in   Overcast
4:53 AM 25.0 °F 19.3 °F 21.0 °F 85% 29.96 in 3.0 mi East 4.6 mph - 0.00 in Snow Light Snow
5:53 AM 25.0 °F 17.1 °F 21.0 °F 85% 29.93 in 3.0 mi East 6.9 mph - 0.00 in Snow Light Snow
6:49 AM 24.8 °F 15.3 °F 21.2 °F 86% 29.83 in 2.0 mi ENE 9.2 mph - 0.00 in Snow Light Snow
6:53 AM 24.8 °F 15.3 °F 21.2 °F 86% 29.83 in 1.8 mi ENE 9.2 mph - N/A Snow Light Snow
7:04 AM 24.8 °F 15.3 °F 21.2 °F 86% 29.83 in 2.0 mi East 9.2 mph - 0.00 in Snow Light Snow
7:21 AM 26.6 °F 16.8 °F 21.2 °F 80% 29.82 in 1.5 mi ENE 10.4 mph - 0.01 in Snow Light Snow
7:27 AM 24.8 °F 14.6 °F 21.2 °F 86% 29.82 in 1.2 mi ENE 10.4 mph - 0.01 in Snow Light Snow
7:53 AM 25.0 °F 13.1 °F 21.9 °F 88% 29.85 in 1.2 mi ENE 13.8 mph - 0.01 in Snow Light Snow
8:12 AM 26.6 °F 15.7 °F 21.2 °F 80% 29.77 in 1.0 mi NE 12.7 mph - 0.00 in Snow Light Snow
8:41 AM 24.8 °F 14.6 °F 21.2 °F 86% 29.77 in 0.5 mi NE 10.4 mph - 0.01 in Fog , Snow Snow
8:53 AM 25.0 °F 14.8 °F 21.9 °F 88% 29.83 in 0.5 mi ENE 10.4 mph - 0.01 in Fog , Snow Snow
8:57 AM 24.8 °F 14.6 °F 21.2 °F 86% 29.77 in 0.2 mi ENE 10.4 mph - 0.00 in Fog , Snow Snow
8:59 AM 24.8 °F 14.0 °F 21.2 °F 86% 29.77 in 0.2 mi ENE 11.5 mph - 0.01 in Fog , Snow Snow
9:06 AM 24.8 °F 14.0 °F 21.2 °F 86% 29.77 in 0.5 mi ENE 11.5 mph - 0.01 in Fog , Snow Snow
9:28 AM 24.8 °F 14.6 °F 23.0 °F 93% 29.77 in 0.5 mi ENE 10.4 mph - 0.02 in Fog , Snow Snow
9:53 AM 26.1 °F 20.5 °F 23.0 °F 88% 29.84 in 0.5 mi East 4.6 mph - 0.04 in Fog , Snow Snow
10:53 AM 26.1 °F 18.4 °F 23.0 °F 88% 29.83 in 0.5 mi ENE 6.9 mph - 0.04 in Fog , Snow Snow
11:30 AM 26.6 °F 18.2 °F 24.8 °F 93% 29.74 in 0.8 mi NE 8.1 mph - 0.02 in Snow Light Snow
11:42 AM 26.6 °F 17.5 °F 24.8 °F 93% 29.73 in 0.5 mi NE 9.2 mph - 0.02 in Fog , Snow Snow
11:53 AM 27.0 °F 18.0 °F 24.1 °F 89% 29.78 in 0.5 mi NNE 9.2 mph - 0.02 in Fog , Snow Snow
11:55 AM 26.6 °F 17.5 °F 24.8 °F 93% 29.72 in 0.8 mi NNE 9.2 mph - 0.00 in Snow Light Snow
12:11 PM 28.4 °F 19.1 °F 24.8 °F 86% 29.71 in 0.8 mi NNE 10.4 mph - 0.00 in Snow Light Snow
12:21 PM 28.4 °F 19.7 °F 24.8 °F 86% 29.70 in 1.2 mi NNE 9.2 mph - 0.00 in Snow Light Snow
12:53 PM 28.0 °F 18.6 °F 24.1 °F 85% 29.74 in 1.2 mi NNE 10.4 mph - 0.01 in Snow Light Snow
12:55 PM 28.4 °F 19.1 °F 24.8 °F 86% 29.69 in 1.0 mi NNE 10.4 mph - 0.00 in Snow Light Snow
1:19 PM 28.4 °F 20.4 °F 24.8 °F 86% 29.69 in 0.8 mi NNE 8.1 mph - 0.00 in Snow Light Snow
1:53 PM 28.0 °F 18.1 °F 25.0 °F 88% 29.74 in 0.8 mi NNE 11.5 mph - 0.01 in Snow Light Snow
1:57 PM 28.4 °F 18.0 °F 24.8 °F 86% 29.69 in 1.0 mi NNE 12.7 mph - 0.00 in Snow Light Snow
2:04 PM 28.4 °F 18.0 °F 24.8 °F 86% 29.69 in 1.2 mi NNE 12.7 mph - 0.00 in Snow Light Snow
2:21 PM 28.4 °F 17.5 °F 24.8 °F 86% 29.69 in 1.2 mi NNE 13.8 mph - 0.00 in Snow Light Snow
2:53 PM 28.0 °F 16.5 °F 24.1 °F 85% 29.75 in 1.2 mi North 15.0 mph - 0.00 in Snow Light Snow
3:38 PM 28.4 °F 18.5 °F 24.8 °F 86% 29.70 in 1.2 mi North 11.5 mph - 0.00 in Snow Light Snow
3:48 PM 28.4 °F 18.0 °F 24.8 °F 86% 29.71 in 1.2 mi North 12.7 mph - N/A Snow Light Snow
3:53 PM 28.0 °F 18.6 °F 25.0 °F 88% 29.76 in 1.2 mi North 10.4 mph - 0.00 in Snow Light Snow
4:02 PM 28.4 °F 18.5 °F 24.8 °F 86% 29.71 in 0.8 mi North 11.5 mph - 0.00 in Snow Light Snow
4:14 PM 28.4 °F 18.0 °F 24.8 °F 86% 29.71 in 2.0 mi NNW 12.7 mph - 0.00 in Snow Light Snow
4:22 PM 28.4 °F 17.5 °F 24.8 °F 86% 29.71 in 1.2 mi North 13.8 mph - 0.00 in Snow Light Snow
4:53 PM 27.0 °F 16.1 °F 24.1 °F 89% 29.78 in 1.2 mi North 12.7 mph - 0.00 in Snow Light Snow
5:09 PM 26.6 °F 15.2 °F 23.0 °F 86% 29.74 in 1.5 mi North 13.8 mph - 0.00 in Snow Light Snow
5:28 PM 26.6 °F 16.2 °F 23.0 °F 86% 29.74 in 1.5 mi North 11.5 mph - 0.00 in Snow Light Snow
5:46 PM 26.6 °F 16.2 °F 23.0 °F 86% 29.75 in 1.5 mi NNW 11.5 mph 34.5 mph 0.00 in Snow Light Snow
5:53 PM 26.6 °F 15.7 °F 23.0 °F 86% 29.75 in 1.5 mi NNW 12.7 mph 34.5 mph N/A Snow Light Snow
6:03 PM 26.6 °F 16.8 °F 23.0 °F 86% 29.76 in 2.0 mi NNW 10.4 mph - 0.00 in Snow Light Snow
6:11 PM 26.6 °F 15.7 °F 23.0 °F 86% 29.76 in 3.0 mi NNW 12.7 mph - 0.00 in Snow Light Snow
6:28 PM 26.6 °F 15.7 °F 21.2 °F 80% 29.77 in 4.0 mi NNW 12.7 mph - N/A Snow Light Snow
6:51 PM 24.8 °F 14.0 °F 21.2 °F 86% 29.78 in 2.5 mi NNW 11.5 mph - 0.00 in Snow Light Snow
6:53 PM 25.0 °F 13.1 °F 21.0 °F 85% 29.83 in 2.5 mi NNW 13.8 mph - 0.00 in Snow Light Snow
7:53 PM 25.0 °F 12.2 °F 21.0 °F 85% 29.85 in 2.5 mi NW 16.1 mph - 0.01 in Snow Light Snow
8:21 PM 24.8 °F 14.6 °F 21.2 °F 86% 29.80 in 3.0 mi NNW 10.4 mph - 0.00 in Snow Light Snow
8:46 PM 24.8 °F 15.3 °F 21.2 °F 86% 29.80 in 6.0 mi NW 9.2 mph - 0.00 in Snow Light Snow
8:53 PM 25.0 °F 15.5 °F 21.0 °F 85% 29.86 in 7.0 mi NW 9.2 mph - 0.00 in Snow Light Snow
9:23 PM 24.8 °F 14.0 °F 21.2 °F 86% 29.82 in 5.0 mi NW 11.5 mph - 0.00 in Snow Light Snow
9:53 PM 26.1 °F 17.6 °F 21.9 °F 84% 29.88 in 5.0 mi NW 8.1 mph - 0.00 in Snow Light Snow
10:14 PM 24.8 °F 16.9 °F 21.2 °F 86% 29.83 in 6.0 mi West 6.9 mph - 0.00 in Snow Light Snow
10:42 PM 26.6 °F 18.2 °F 21.2 °F 80% 29.84 in 7.0 mi West 8.1 mph - 0.00 in Snow Light Snow
10:53 PM 26.1 °F 17.6 °F 21.9 °F 84% 29.90 in 7.0 mi West 8.1 mph - 0.00 in Snow Light Snow
11:53 PM 25.0 °F 14.2 °F 19.9 °F 81% 29.91 in 10.0 mi West 11.5 mph - 0.00 in   Overcast